When you browse on this site, cookies collect data to enhance your experience and personalize the content and advertising you see.
Visit our Privacy Policy to learn more. By continuing to use the site, you agree to this use of cookies and data.
  • en France
  • Liste des pays
  • À 7 jours
  • Température de l'eau
  • Carte satellitaire
  • Carte météo
  • Widgets météo
  • user-avatar
    Se connecter

    Météo par heure à Fier

    Ce jour, 19 Janvier, Samedi

    Heure Température Précipitation Vent Pression Humidité
    00:00 +7°C° 0.1 mm 4 m/s 761 mmHg 83%
    01:00 +7°C° 0 mm 4 m/s 760 mmHg 84%
    02:00 +7°C° 0 mm 4 m/s 760 mmHg 84%
    03:00 +7°C° 0 mm 4 m/s 760 mmHg 84%
    04:00 +7°C° 0 mm 4 m/s 760 mmHg 84%
    05:00 +7°C° 0 mm 4 m/s 760 mmHg 83%
    06:00 +7°C° 0 mm 4 m/s 760 mmHg 83%
    07:00 +7°C° 0 mm 4 m/s 760 mmHg 83%
    08:00 +8°C° 0 mm 4 m/s 760 mmHg 78%
    09:00 +10°C° 0 mm 5 m/s 760 mmHg 74%
    10:00 +12°C° 0 mm 5 m/s 760 mmHg 69%
    11:00 +12°C° 0.2 mm 5 m/s 760 mmHg 70%
    12:00 +12°C° 0.2 mm 5 m/s 760 mmHg 72%
    13:00 +12°C° 0.2 mm 5 m/s 760 mmHg 73%
    14:00 +12°C° 0.2 mm 4 m/s 759 mmHg 74%
    15:00 +12°C° 0.2 mm 4 m/s 759 mmHg 76%
    16:00 +11°C° 0.2 mm 3 m/s 759 mmHg 77%
    17:00 +11°C° 0.1 mm 3 m/s 759 mmHg 78%
    18:00 +10°C° 0.1 mm 3 m/s 759 mmHg 78%
    19:00 +10°C° 0.1 mm 3 m/s 759 mmHg 79%
    20:00 +10°C° 0 mm 3 m/s 759 mmHg 78%
    21:00 +9°C° 0 mm 3 m/s 759 mmHg 77%
    22:00 +9°C° 0 mm 3 m/s 759 mmHg 76%
    23:00 +9°C° 0 mm 3 m/s 759 mmHg 75%

    Demain, 20 Janvier, Dimanche

    Heure Température Précipitation Vent Pression Humidité
    00:00 +8°C° 0 mm 3 m/s 759 mmHg 75%
    01:00 +7°C° 0 mm 4 m/s 759 mmHg 75%
    02:00 +7°C° 0.2 mm 4 m/s 759 mmHg 76%
    03:00 +7°C° 0.2 mm 4 m/s 759 mmHg 77%
    04:00 +7°C° 0.2 mm 4 m/s 759 mmHg 77%
    05:00 +7°C° 0.1 mm 4 m/s 759 mmHg 78%
    06:00 +7°C° 0.1 mm 4 m/s 759 mmHg 80%
    07:00 +7°C° 0.1 mm 4 m/s 759 mmHg 81%
    08:00 +10°C° 0.1 mm 4 m/s 759 mmHg 77%
    09:00 +11°C° 0.1 mm 4 m/s 759 mmHg 73%
    10:00 +13°C° 0.1 mm 4 m/s 760 mmHg 70%
    11:00 +13°C° 0.3 mm 4 m/s 759 mmHg 67%
    12:00 +13°C° 0.3 mm 4 m/s 759 mmHg 65%
    13:00 +14°C° 0.3 mm 4 m/s 759 mmHg 62%
    14:00 +13°C° 0.7 mm 3 m/s 759 mmHg 67%
    15:00 +14°C° 0.7 mm 2 m/s 759 mmHg 71%
    16:00 +13°C° 0.7 mm 2 m/s 759 mmHg 76%
    17:00 +12°C° 0.4 mm 2 m/s 759 mmHg 78%
    18:00 +10°C° 0.4 mm 2 m/s 759 mmHg 79%
    19:00 +10°C° 0.4 mm 2 m/s 759 mmHg 81%
    20:00 +9°C° 0.1 mm 2 m/s 759 mmHg 81%
    21:00 +9°C° 0.1 mm 2 m/s 760 mmHg 81%
    22:00 +9°C° 0.1 mm 2 m/s 760 mmHg 80%
    23:00 +8°C° 0.1 mm 2 m/s 760 mmHg 79%

    Après-demain, 21 Janvier, Lundi

    Heure Température Précipitation Vent Pression Humidité
    00:00 +8°C° 0.1 mm 3 m/s 760 mmHg 78%
    01:00 +8°C° 0.1 mm 3 m/s 760 mmHg 77%
    02:00 +8°C° 0.1 mm 3 m/s 759 mmHg 76%
    03:00 +8°C° 0.1 mm 3 m/s 759 mmHg 75%
    04:00 +8°C° 0.1 mm 3 m/s 759 mmHg 73%
    05:00 +7°C° 0.1 mm 3 m/s 759 mmHg 72%
    06:00 +7°C° 0.1 mm 3 m/s 759 mmHg 71%
    07:00 +7°C° 0.1 mm 3 m/s 759 mmHg 70%
    08:00 +9°C° 0.1 mm 3 m/s 759 mmHg 66%
    09:00 +10°C° 0.1 mm 3 m/s 760 mmHg 62%
    10:00 +12°C° 0.1 mm 3 m/s 760 mmHg 59%
    11:00 +13°C° 0.4 mm 3 m/s 759 mmHg 58%
    12:00 +13°C° 0.4 mm 3 m/s 759 mmHg 58%
    13:00 +14°C° 0.4 mm 3 m/s 759 mmHg 57%
    14:00 +13°C° 0.5 mm 3 m/s 759 mmHg 61%
    15:00 +13°C° 0.5 mm 3 m/s 758 mmHg 65%
    16:00 +12°C° 0.5 mm 3 m/s 758 mmHg 68%
    17:00 +12°C° 0.2 mm 3 m/s 759 mmHg 70%
    18:00 +11°C° 0.2 mm 3 m/s 759 mmHg 72%
    19:00 +10°C° 0.2 mm 3 m/s 759 mmHg 74%
    20:00 +10°C° 0.1 mm 3 m/s 759 mmHg 75%
    21:00 +10°C° 0.1 mm 3 m/s 759 mmHg 76%
    22:00 +9°C° 0.1 mm 3 m/s 759 mmHg 77%
    23:00 +9°C° 0.5 mm 3 m/s 759 mmHg 78%

    22 Janvier, Mardi

    Heure Température Précipitation Vent Pression Humidité
    00:00 +9°C° 0.5 mm 3 m/s 758 mmHg 78%
    01:00 +9°C° 0.5 mm 3 m/s 758 mmHg 79%
    02:00 +9°C° 0.6 mm 3 m/s 758 mmHg 79%
    03:00 +9°C° 0.6 mm 3 m/s 757 mmHg 79%
    04:00 +8°C° 0.6 mm 4 m/s 757 mmHg 79%
    05:00 +7°C° 0.3 mm 4 m/s 757 mmHg 78%
    06:00 +7°C° 0.3 mm 4 m/s 756 mmHg 77%
    07:00 +7°C° 0.3 mm 4 m/s 756 mmHg 76%
    08:00 +8°C° 0.2 mm 4 m/s 756 mmHg 72%
    09:00 +10°C° 0.2 mm 4 m/s 755 mmHg 68%
    10:00 +11°C° 0.2 mm 4 m/s 755 mmHg 64%
    11:00 +12°C° 0.3 mm 5 m/s 754 mmHg 65%
    12:00 +12°C° 0.3 mm 5 m/s 754 mmHg 66%
    13:00 +12°C° 0.3 mm 5 m/s 753 mmHg 66%
    14:00 +12°C° 0.2 mm 5 m/s 752 mmHg 68%
    15:00 +12°C° 0.2 mm 5 m/s 752 mmHg 69%
    16:00 +11°C° 0.2 mm 6 m/s 751 mmHg 70%
    17:00 +10°C° 1.1 mm 5 m/s 751 mmHg 73%
    18:00 +10°C° 1.1 mm 5 m/s 750 mmHg 77%
    19:00 +10°C° 1.1 mm 4 m/s 750 mmHg 80%
    20:00 +10°C° 1.9 mm 3 m/s 750 mmHg 83%
    21:00 +10°C° 1.9 mm 3 m/s 750 mmHg 85%
    22:00 +10°C° 1.9 mm 2 m/s 749 mmHg 88%
    23:00 +10°C° 1.1 mm 2 m/s 749 mmHg 88%

    23 Janvier, Mercredi

    Heure Température Précipitation Vent Pression Humidité
    00:00 +10°C° 1.1 mm 2 m/s 749 mmHg 89%
    01:00 +10°C° 1.1 mm 1 m/s 748 mmHg 90%
    02:00 +9°C° 0.8 mm 2 m/s 748 mmHg 91%
    03:00 +9°C° 0.8 mm 2 m/s 748 mmHg 92%
    04:00 +9°C° 0.8 mm 2 m/s 748 mmHg 93%
    05:00 +10°C° 0.5 mm 1 m/s 748 mmHg 94%
    06:00 +10°C° 0.5 mm 1 m/s 748 mmHg 95%
    07:00 +8°C° 0.5 mm 0 m/s 748 mmHg 95%
    08:00 +9°C° 0.2 mm 0 m/s 748 mmHg 92%
    09:00 +9°C° 0.2 mm 0 m/s 748 mmHg 88%
    10:00 +10°C° 0.2 mm 0 m/s 748 mmHg 85%
    11:00 +10°C° 0.3 mm 0 m/s 748 mmHg 83%
    12:00 +11°C° 0.3 mm 1 m/s 747 mmHg 82%
    13:00 +11°C° 0.3 mm 1 m/s 747 mmHg 80%
    14:00 +11°C° 0.4 mm 1 m/s 747 mmHg 82%
    15:00 +10°C° 0.4 mm 2 m/s 747 mmHg 84%
    16:00 +10°C° 0.4 mm 2 m/s 748 mmHg 85%
    17:00 +9°C° 0.3 mm 2 m/s 748 mmHg 86%
    18:00 +9°C° 0.3 mm 2 m/s 748 mmHg 87%
    19:00 +8°C° 0.3 mm 3 m/s 749 mmHg 88%
    20:00 +8°C° 0 mm 3 m/s 749 mmHg 87%
    21:00 +8°C° 0 mm 3 m/s 749 mmHg 86%
    22:00 +7°C° 0 mm 4 m/s 749 mmHg 85%
    23:00 +6°C° 0 mm 4 m/s 749 mmHg 83%

    24 Janvier, Jeudi

    Heure Température Précipitation Vent Pression Humidité
    00:00 +6°C° 0 mm 4 m/s 748 mmHg 81%
    01:00 +6°C° 0 mm 4 m/s 748 mmHg 80%
    02:00 +6°C° 0 mm 4 m/s 748 mmHg 78%
    03:00 +6°C° 0 mm 4 m/s 747 mmHg 76%
    04:00 +6°C° 0 mm 4 m/s 747 mmHg 74%
    05:00 +6°C° 0 mm 4 m/s 746 mmHg 73%
    06:00 +6°C° 0 mm 4 m/s 746 mmHg 71%
    07:00 +5°C° 0 mm 3 m/s 746 mmHg 70%
    08:00 +7°C° 0 mm 4 m/s 745 mmHg 65%
    09:00 +8°C° 0 mm 4 m/s 745 mmHg 60%
    10:00 +11°C° 0 mm 4 m/s 745 mmHg 55%
    11:00 +10°C° 0.4 mm 5 m/s 744 mmHg 57%
    12:00 +10°C° 0.4 mm 5 m/s 744 mmHg 59%
    13:00 +11°C° 0.4 mm 6 m/s 743 mmHg 60%
    14:00 +10°C° 0.2 mm 5 m/s 743 mmHg 63%
    15:00 +10°C° 0.2 mm 4 m/s 743 mmHg 66%
    16:00 +10°C° 0.2 mm 4 m/s 743 mmHg 68%
    17:00 +9°C° 0 mm 3 m/s 743 mmHg 70%
    18:00 +9°C° 0 mm 3 m/s 743 mmHg 71%
    19:00 +8°C° 0 mm 3 m/s 743 mmHg 73%
    20:00 +8°C° 0.6 mm 3 m/s 743 mmHg 75%
    21:00 +8°C° 0.6 mm 3 m/s 744 mmHg 78%
    22:00 +7°C° 0.6 mm 4 m/s 744 mmHg 80%
    23:00 +6°C° 0 mm 4 m/s 744 mmHg 79%
    Voir plus